Left ArrowRight Arrow

Hourly Observations for July 6, 2021

Temp ( °F °C ) Dew Point ( °F °C ) Humidity (%) Winds ( mph kmh ) Pressure ( in mb ) Visibility ( mi km ) Precip ( " mm )
12:51 am 00:51 Clear 76 24.4 65 18.3 69 69 SSW 9 15 30.00 1016 10 16 0.00 0.00
1:51 am 01:51 Clear 75 23.9 65 18.3 71 71 SSW 9 15 29.99 1016 10 16 0.00 0.00
2:51 am 02:51 Clear 74 23.3 65 18.3 74 74 S 6 9 29.98 1015 10 16 0.00 0.00
3:51 am 03:51 Clear 73 22.8 64 17.8 74 74 SW 6 9 29.98 1015 10 16 0.00 0.00
4:51 am 04:51 Clear 73 22.8 64 17.8 74 74 SW 9 15 29.98 1015 10 16 0.00 0.00
5:51 am 05:51 Sunny 73 22.8 64 17.8 74 74 SSW 9 15 29.98 1015 10 16 0.00 0.00
6:51 am 06:51 Mostly Cloudy 74 23.3 66 18.9 76 76 SSW 9 15 29.98 1015 10 16 0.00 0.00
7:51 am 07:51 Sunny 75 23.9 66 18.9 74 74 SW 13 20 29.99 1016 10 16 0.00 0.00
8:51 am 08:51 Sunny 78 25.6 68 20 71 71 SSW 10 17 29.99 1016 10 16 0.00 0.00
9:51 am 09:51 Sunny 82 27.8 70 21.1 67 67 WSW 10 17 29.97 1015 10 16 0.00 0.00
10:51 am 10:51 Sunny 86 30 71 21.7 61 61 WSW 10 17 29.96 1015 10 16 0.00 0.00
11:51 am 11:51 Sunny 89 31.7 71 21.7 55 55 WSW 12 19 29.95 1014 10 16 0.00 0.00
12:51 pm 12:51 Sunny 91 32.8 71 21.7 52 52 W 13 20 29.93 1013 10 16 0.00 0.00
1:51 pm 13:51 Sunny 94 34.4 70 21.1 46 46 SW 15 24 29.90 1013 10 16 0.00 0.00
2:51 pm 14:51 Sunny 94 34.4 69 20.6 44 44 WSW 17 28 29.88 1012 10 16 0.00 0.00
3:51 pm 15:51 Mostly Sunny 95 35 70 21.1 44 44 WSW 14 22 29.88 1012 10 16 0.00 0.00
4:51 pm 16:51 Mostly Sunny 94 34.4 69 20.6 44 44 WSW 17 28 29.86 1011 10 16 0.00 0.00
5:51 pm 17:51 Mostly Cloudy 93 33.9 68 20 44 44 WSW 16 26 29.84 1011 10 16 0.00 0.00
6:17 pm 18:17 Mostly Cloudy with Nearby Thunderstorms 89 31.7 66 18.9 47 47 WNW 41 67 29.92 1013 9 14 0.00 0.00
6:30 pm 18:30 Mostly Cloudy with Strong Thunderstorms 72 22.2 64 17.8 76 76 WNW 18 30 29.97 1015 2 2 0.00 0.00
6:49 pm 18:49 Cloudy with Nearby Thunderstorms 72 22 66 19 83 83 W 10 17 29.93 1014 3 5 0.15 3.81
6:51 pm 18:51 Mostly Cloudy with Nearby Thunderstorms 71 21.7 66 18.9 84 84 WNW 7 11 29.92 1013 3 5 0.15 3.81
7:20 pm 19:20 Mostly Cloudy with Light Rain 72 22 68 20 88 88 N 8 13 29.90 1013 8 13 0.00 0.00
7:37 pm 19:37 Mostly Cloudy with Thunderstorms 72 22.2 69 20.6 91 91 SW 9 15 29.93 1014 8 13 0.00 0.00
7:51 pm 19:51 Partly Cloudy with Thunderstorms 73 22.8 69 20.6 87 87 S 7 11 29.94 1014 8 13 0.01 0.25
8:20 pm 20:20 Mostly Cloudy with Nearby Thunderstorms 72 22.2 69 20.6 91 91 S 8 13 29.95 1014 7 11 0.05 1.27
8:51 pm 20:51 Mostly Cloudy with Light Rain 73 22.8 69 20.6 87 87 SSE 8 13 29.94 1014 7 11 0.09 2.29
9:08 pm 21:08 Mostly Cloudy with Thunderstorms 73 22.8 69 20.6 87 87 S 9 15 29.94 1014 9 14 0.00 0.00
9:23 pm 21:23 Mostly Cloudy with Nearby Thunderstorms 72 22.2 69 20.6 91 91 SSW 5 7 29.95 1014 10 16 0.03 0.76
9:38 pm 21:38 Mostly Cloudy with Thunderstorms 73 22.8 69 20.6 87 87 SE 8 13 29.95 1014 10 16 0.03 0.76
9:51 pm 21:51 Cloudy 73 22.8 69 20.6 87 87 Calm 29.95 1014 10 16 0.03 0.76
10:03 pm 22:03 Cloudy with Nearby Thunderstorms 72 22.2 69 20.6 91 91 SSW 8 13 29.97 1015 7 11 0.02 0.51
10:19 pm 22:19 Cloudy with Thunderstorms 73 22.8 70 21.1 90 90 SSW 8 13 29.97 1015 6 10 0.03 0.76
10:34 pm 22:34 Cloudy with Light Rain 73 22.8 70 21.1 90 90 S 8 13 29.95 1014 6 10 0.03 0.76
10:51 pm 22:51 Cloudy 73 22.8 70 21.1 90 90 S 6 9 29.95 1014 10 16 0.03 0.76

Powered by Vaisala Xweather